Погода в Маунт-Хагене

Папуа-Новая Гвинея     5°53′54″S   144°08′38″E
темп.,
°C
ветер,
м/с
пор.,
м/с
влажн.,
%
обл.,
%
осадки,
мм/ч
давл.,
гПа
погр.,
м
20 сентября, пн
пн2001:00+14с1298100 0.1 101560
04:00+14ссв2498100 0.3 1014106
07:00+14ссв129897 0.7 101679
10:00+16св1293100 0.9 1016226
13:00+20св127099 0.4 1012907
16:00+18юв129233 2.4 1011347
19:00+15ююв119980 3.3 101428
22:00+14ссз1199100 6.8 101650
21 сентября, вт
вт2101:00+13ссв119997 0.6 101538
04:00+13с1198100 0.6 101430
07:00+13с1196100 0.0 101545
10:00+21ссв0157100 0.1 1014977
13:00+22ююв1153100 0.2 10101406
16:00+18ю128895 1.2 1010438
19:00+15ю0199100 1.3 101344
22:00+14ююз0098100 1.9 101514
22 сентября, ср
ср2201:00+13юв0099100 0.1 101417
04:00+13св119884 0.3 101415
07:00+14ссв119849 0.0 101547
10:00+20ссв127737 0.9 1013699
13:00+21св127473 1.5 10101118
16:00+19с139192 4.4 1009497
19:00+15ссв0099100 5.6 101229
22:00+15св1199100 13.2 101534
23 сентября, чт
чт2301:00+14св0099100 3.0 101424
04:00+14с1199100 5.5 101343
07:00+14с1199100 1.1 101654
10:00+15с1297100 2.2 1016167
13:00+21ссв1362100 0.1 10111109
16:00+19с0283100 1.3 1011467
19:00+15ююв0199100 0.9 101440
22:00+14ссв009988 1.1 101624
24 сентября, пт
пт2401:00+13с119940 0.0 101526
04:00+12с129865 0.0 101543
07:00+13ссв2397100 0.0 101676
10:00+19ссв2360100 0.0 1014670
13:00+21с2350100 0.0 10111187
16:00+20ссз2360100 0.0 1010842
19:00+14ссв228874 0.1 101449
22:00+13ссв129599 0.1 101639